Bogalusa, LA

9:43 AM CDT on May 25, 2017 (GMT -0500)
Carr Memorial

Weather History for KBXA - January, 2013

Change the Weather History Date:

Monday, January 14, 2013

  Actual Average Record
Temperature  
Mean Temperature 43 °F -  
Max Temperature 48 °F 57 °F 79 °F (2017)
Min Temperature 38 °F 35 °F 34 °F (2016)
Degree Days  
Heating Degree Days 22    
Moisture  
Dew Point 44 °F    
Average Humidity 100    
Maximum Humidity 100    
Minimum Humidity 100    
Precipitation  
Precipitation 0.85 in - - ()
Sea Level Pressure  
Sea Level Pressure 30.12 in    
Wind  
Wind Speed 9 mph (NNE)    
Max Wind Speed 15 mph    
Max Gust Speed 23 mph    
Visibility 6 miles    
Events Rain , Thunderstorm    
Averages and records for this station are not official NWS values.
T = Trace of Precipitation, MM = Missing Value Source: NWS Daily Summary

Daily Weather History Graph

Daily Weather History Graph

Search for Another Location

Airport or City:

Trip Planner

Search our weather history database for the weather conditions in past years. The results will help you decide how hot, cold, wet, or windy it might be!

Date:

Astronomy

Jan. 14, 2013 Rise Set
Actual Time 6:57 AM CST 5:19 PM CST
Civil Twilight 6:31 AM CST 5:45 PM CST
Nautical Twilight 6:02 AM CST 6:15 PM CST
Astronomical Twilight 5:33 AM CST 6:44 PM CST
Moon 8:47 AM CST (1/14) 8:47 PM CST (1/14)
Length of Visible Light 11h 14m
Length of Day
10h 21m
Waxing Crescent, 11% of the Moon is Illuminated
Jan 14
Waxing Crescent
Jan 18
First Quarter
Jan 26
Full
Feb 3
Last Quarter
Feb 10
New

Hourly Weather History & Observations

Time (CST) Temp. Windchill Dew Point Humidity Pressure Visibility Wind Dir Wind Speed Gust Speed Precip Events Conditions
12:15 AM 47.8 °F - 47.8 °F 100% 30.10 in 10.0 mi NNE 11.5 mph - N/A   Drizzle
12:35 AM 47.7 °F - 47.7 °F 100% 30.10 in 10.0 mi North 10.4 mph 16.1 mph N/A   Unknown
1:15 AM 47.3 °F - 47.3 °F 100% 30.11 in 7.0 mi North 9.2 mph - 0.01 in Rain Heavy Rain
1:35 AM 46.8 °F - 46.8 °F 100% 30.11 in 10.0 mi North 8.1 mph 17.3 mph 0.02 in   Drizzle
1:55 AM 46.6 °F - 46.6 °F 100% 30.11 in 7.0 mi North 11.5 mph - 0.05 in Rain Heavy Rain
2:15 AM 46.4 °F 41.1 °F 46.4 °F 100% 30.11 in 10.0 mi North 11.5 mph 16.1 mph 0.01 in Rain Rain
2:55 AM 46.0 °F 42.5 °F 46.0 °F 100% 30.11 in 10.0 mi North 6.9 mph - 0.01 in   Light Drizzle
3:15 AM 46.4 °F 42.4 °F 46.4 °F 100% 30.10 in 10.0 mi NNE 8.1 mph - N/A Thunderstorm Overcast
3:35 AM 46.6 °F - 46.6 °F 100% 30.10 in 10.0 mi NNE 5.8 mph - 0.02 in Rain Rain
3:55 AM 46.6 °F - 46.6 °F 100% 30.08 in 10.0 mi ENE 9.2 mph - 0.03 in Rain Light Rain
4:15 AM 46.8 °F - 46.8 °F 100% 30.08 in 10.0 mi NE 8.1 mph - 0.02 in Rain Rain
4:35 AM 46.6 °F - 46.6 °F 100% 30.08 in 7.0 mi NE 8.1 mph - 0.07 in Rain Rain
4:55 AM 46.6 °F - 46.6 °F 100% 30.09 in 10.0 mi NE 8.1 mph - 0.10 in Rain Rain
5:15 AM 46.4 °F 41.1 °F 46.4 °F 100% 30.08 in 3.0 mi NE 11.5 mph 17.3 mph 0.13 in Rain Heavy Rain
5:35 AM 46.4 °F 42.4 °F 46.4 °F 100% 30.08 in 3.0 mi NE 8.1 mph - 0.36 in Rain , Thunderstorm Heavy Thunderstorms and Rain
6:15 AM 46.4 °F 42.4 °F 46.4 °F 100% 30.10 in 10.0 mi NE 8.1 mph - N/A   Overcast
6:35 AM 46.4 °F 42.4 °F 46.4 °F 100% 30.10 in 7.0 mi NE 8.1 mph - N/A   Overcast
6:55 AM 46.4 °F 41.9 °F 46.4 °F 100% 30.11 in 7.0 mi NE 9.2 mph - N/A   Overcast
7:15 AM 46.4 °F 42.4 °F 46.4 °F 100% 30.12 in 7.0 mi NNE 8.1 mph - N/A   Overcast
7:35 AM 46.0 °F 41.9 °F 46.0 °F 100% 30.14 in 2.5 mi North 8.1 mph - N/A   Overcast
7:55 AM 45.5 °F 41.3 °F 45.5 °F 100% 30.13 in 2.5 mi NE 8.1 mph - N/A Thunderstorm Overcast
8:15 AM 45.7 °F 42.0 °F 45.7 °F 100% 30.13 in 3.0 mi NE 6.9 mph - N/A   Overcast
8:35 AM 45.9 °F 41.7 °F 45.9 °F 100% 30.14 in 3.0 mi NNE 8.1 mph - N/A   Overcast
8:55 AM 45.9 °F 41.2 °F 45.9 °F 100% 30.13 in 4.0 mi NE 9.2 mph - N/A   Overcast
9:15 AM 46.0 °F 43.1 °F 46.0 °F 100% 30.14 in 4.0 mi ENE 5.8 mph - N/A   Overcast
9:35 AM 46.2 °F 42.7 °F 46.2 °F 100% 30.13 in 5.0 mi ENE 6.9 mph - N/A   Overcast
9:55 AM 46.4 °F 42.9 °F 46.4 °F 100% 30.13 in 3.0 mi NE 6.9 mph - N/A   Overcast
10:15 AM 46.6 °F - 46.6 °F 100% 30.13 in 4.0 mi NE 4.6 mph - N/A   Overcast
10:35 AM 47.3 °F - 47.3 °F 100% 30.12 in 2.5 mi NE 6.9 mph - N/A   Overcast
10:55 AM 47.5 °F - 47.5 °F 100% 30.11 in 3.0 mi ENE 6.9 mph - N/A   Overcast
11:15 AM 47.8 °F - 47.8 °F 100% 30.10 in 2.5 mi NE 6.9 mph - N/A   Overcast
11:55 AM 48.0 °F - 48.0 °F 100% 30.09 in 1.5 mi North 5.8 mph - N/A   Overcast
12:15 PM 48.0 °F - 48.0 °F 100% 30.10 in 1.5 mi North 6.9 mph - N/A   Overcast
12:35 PM 48.2 °F - 48.2 °F 100% 30.10 in 1.5 mi North 8.1 mph - N/A   Overcast
1:15 PM 47.8 °F - 47.8 °F 100% 30.10 in 1.8 mi North 10.4 mph - N/A   Overcast
1:35 PM 47.3 °F - 47.3 °F 100% 30.10 in 1.8 mi North 10.4 mph - N/A   Overcast
1:55 PM 46.9 °F - 46.9 °F 100% 30.09 in 4.0 mi NNE 11.5 mph - N/A   Overcast
2:15 PM 46.6 °F - 46.6 °F 100% 30.10 in 3.0 mi North 12.7 mph 17.3 mph N/A   Overcast
2:35 PM 46.4 °F 41.9 °F 46.4 °F 100% 30.12 in 2.0 mi North 9.2 mph - N/A   Overcast
2:55 PM 45.5 °F 39.6 °F 45.5 °F 100% 30.12 in 2.5 mi North 12.7 mph 21.9 mph N/A   Overcast
3:15 PM 45.3 °F 39.0 °F 45.3 °F 100% 30.13 in 2.5 mi North 13.8 mph 17.3 mph N/A Rain Rain
3:35 PM 44.8 °F 39.4 °F 44.8 °F 100% 30.15 in 3.0 mi North 10.4 mph - N/A Rain , Thunderstorm Light Thunderstorms and Rain
3:55 PM 43.9 °F 36.8 °F 43.9 °F 100% 30.16 in 2.5 mi North 15.0 mph 19.6 mph N/A   Light Drizzle
4:35 PM 41.9 °F 35.0 °F 41.9 °F 100% 30.17 in 3.0 mi North 12.7 mph - 0.01 in   Light Drizzle
4:55 PM 41.2 °F 33.7 °F 41.2 °F 100% 30.18 in 7.0 mi North 13.8 mph 18.4 mph 0.01 in   Overcast
5:15 PM 39.6 °F 31.3 °F 39.6 °F 100% 30.18 in 10.0 mi North 15.0 mph 23.0 mph N/A   Light Drizzle
5:35 PM 39.2 °F 32.0 °F 39.2 °F 100% 30.18 in 10.0 mi NNE 11.5 mph 17.3 mph N/A Rain Light Rain
5:55 PM 39.2 °F 31.6 °F 39.2 °F 100% 30.17 in 10.0 mi NNE 12.7 mph 19.6 mph N/A   Light Drizzle
6:15 PM 38.8 °F 32.6 °F 38.8 °F 100% 30.17 in 10.0 mi NE 9.2 mph 20.7 mph N/A   Overcast
6:35 PM 39.2 °F 35.9 °F 39.2 °F 100% 30.17 in 10.0 mi NE 4.6 mph - N/A Rain Light Rain
6:55 PM 39.4 °F 35.2 °F 39.4 °F 100% 30.18 in 10.0 mi NNE 5.8 mph - N/A Rain Rain
7:15 PM 39.6 °F 35.4 °F 39.6 °F 100% 30.18 in 7.0 mi North 5.8 mph - 0.02 in Rain Rain
7:35 PM 39.6 °F 33.5 °F 39.6 °F 100% 30.16 in 7.0 mi ENE 9.2 mph - 0.06 in Rain Rain
7:55 PM 40.1 °F 35.3 °F 40.1 °F 100% 30.17 in 7.0 mi North 6.9 mph - 0.11 in Rain Light Rain
8:15 PM 40.1 °F 36.1 °F 40.1 °F 100% 30.16 in 7.0 mi NNE 5.8 mph - 0.03 in Rain Rain
8:35 PM 40.1 °F 36.1 °F 40.1 °F 100% 30.14 in 5.0 mi NE 5.8 mph - 0.08 in Rain Rain
8:55 PM 40.1 °F 34.7 °F 40.1 °F 100% 30.13 in 7.0 mi NNE 8.1 mph - 0.11 in Rain Heavy Rain
9:15 PM 40.3 °F 36.3 °F 40.3 °F 100% 30.13 in 5.0 mi NNE 5.8 mph - 0.03 in Rain Rain
9:35 PM 40.1 °F 36.9 °F 40.1 °F 100% 30.14 in 7.0 mi NNE 4.6 mph - 0.05 in Rain Light Rain
10:15 PM 40.3 °F 34.4 °F 40.3 °F 100% 30.13 in 7.0 mi NNE 9.2 mph - 0.01 in   Drizzle
10:35 PM 40.5 °F 35.1 °F 40.5 °F 100% 30.12 in 10.0 mi NNE 8.1 mph - 0.01 in   Heavy Drizzle
10:55 PM 40.3 °F 35.5 °F 40.3 °F 100% 30.13 in 10.0 mi NNE 6.9 mph - 0.02 in   Overcast
11:15 PM 40.6 °F 36.0 °F 40.6 °F 100% 30.11 in 10.0 mi NE 6.9 mph - N/A   Overcast
11:35 PM 40.6 °F 36.7 °F 40.6 °F 100% 30.11 in 10.0 mi NE 5.8 mph - N/A   Drizzle
11:55 PM 41.0 °F 37.1 °F 41.0 °F 100% 30.10 in 10.0 mi NE 5.8 mph - N/A   Overcast